Weather History for Audubon, IA

Change the Weather History Date:

Thursday, October 27, 2011

  Actual Average Record
Temperature  
Mean Temperature 40 °F -  
Max Temperature 55 °F 60 °F 84 °F (1999)
Min Temperature 26 °F 39 °F 14 °F (2001)
Degree Days  
Heating Degree Days 24    
Moisture  
Dew Point 26 °F    
Average Humidity 56    
Maximum Humidity 86    
Minimum Humidity 22    
Precipitation  
Precipitation 0.00 in - - ()
Sea Level Pressure  
Sea Level Pressure 30.11 in    
Wind  
Wind Speed 3 mph (WNW)    
Max Wind Speed 8 mph    
Max Gust Speed -    
Visibility 10 miles    
Events      
Averages and records for this station are not official NWS values.
T = Trace of Precipitation, MM = Missing Value Source: NWS Daily Summary

Daily Weather History Graph

Daily Weather History Graph

Search for Another Location

Airport:

Trip Planner

Search our weather history database for the weather conditions in past years. The results will help you decide how hot, cold, wet, or windy it might be!

Date:

Astronomy

Oct. 27, 2011 Rise Set
Actual Time 7:45 AM CDT 6:21 PM CDT
Civil Twilight 7:16 AM CDT 6:49 PM CDT
Nautical Twilight 6:44 AM CDT 7:22 PM CDT
Astronomical Twilight 6:12 AM CDT 7:54 PM CDT
Moon 8:51 AM CDT (10/27) 6:48 PM CDT (10/27)
Length of Visible Light 11h 32m
Length of Day
10h 35m
New Moon, 1% of the Moon is Illuminated
Oct 27
New Moon
Nov 2
First Quarter
Nov 10
Full
Nov 18
Last Quarter
Nov 25
New

Hourly Weather History & Observations

Time (CDT) Temp. Windchill Dew Point Humidity Pressure Visibility Wind Dir Wind Speed Gust Speed Precip Events Conditions
12:15 AM 44.6 °F 43.1 °F 35.6 °F 71% 30.09 in 10.0 mi NW 3.5 mph - N/A   Scattered Clouds
12:35 AM 44.6 °F 41.4 °F 35.6 °F 71% 30.09 in 10.0 mi NNW 5.8 mph - N/A   Clear
1:15 AM 44.6 °F 43.1 °F 35.6 °F 71% 30.10 in 10.0 mi NW 3.5 mph - N/A   Scattered Clouds
1:35 AM 42.8 °F 41.1 °F 35.6 °F 76% 30.09 in 10.0 mi NW 3.5 mph - N/A   Scattered Clouds
1:55 AM 42.8 °F 41.1 °F 35.6 °F 76% 30.09 in 10.0 mi WNW 3.5 mph - N/A   Scattered Clouds
4:15 AM 39.2 °F - 32.0 °F 75% 30.10 in 10.0 mi Calm Calm - N/A   Clear
4:35 AM 37.4 °F 34.9 °F 30.2 °F 75% 30.10 in 10.0 mi NW 3.5 mph - N/A   Clear
4:55 AM 35.6 °F - 30.2 °F 81% 30.10 in 10.0 mi Calm Calm - N/A   Clear
5:35 AM 35.6 °F 32.8 °F 30.2 °F 81% 30.11 in 10.0 mi NW 3.5 mph - N/A   Clear
5:55 AM 35.6 °F 32.8 °F 30.2 °F 81% 30.11 in 10.0 mi WNW 3.5 mph - N/A   Clear
6:15 AM 35.6 °F 32.8 °F 30.2 °F 81% 30.11 in 10.0 mi NW 3.5 mph - N/A   Clear
6:35 AM 33.8 °F - 28.4 °F 81% 30.11 in 10.0 mi Calm Calm - N/A   Clear
6:55 AM 35.6 °F - 28.4 °F 75% 30.10 in 10.0 mi Calm Calm - N/A   Clear
7:15 AM 28.4 °F - 24.8 °F 86% 30.10 in 10.0 mi Calm Calm - N/A   Clear
7:35 AM 30.2 °F - 26.6 °F 86% 30.10 in 10.0 mi Calm Calm - N/A   Clear
7:55 AM 26.6 °F - 21.2 °F 80% 30.10 in 10.0 mi Calm Calm - N/A   Clear
8:15 AM 28.4 °F - 24.8 °F 86% 30.11 in 10.0 mi Calm Calm - N/A   Clear
8:35 AM 30.2 °F - 24.8 °F 80% 30.11 in 7.0 mi Calm Calm - N/A   Clear
8:55 AM 33.8 °F - 28.4 °F 81% 30.11 in 10.0 mi Calm Calm - N/A   Clear
9:15 AM 39.2 °F - 33.8 °F 81% 30.11 in 10.0 mi Calm Calm - N/A   Clear
9:35 AM 41.0 °F 38.0 °F 35.6 °F 81% 30.12 in 10.0 mi WNW 4.6 mph - N/A   Clear
9:55 AM 42.8 °F 40.1 °F 35.6 °F 76% 30.12 in 10.0 mi NW 4.6 mph - N/A   Clear
10:15 AM 44.6 °F 40.7 °F 35.6 °F 71% 30.13 in 10.0 mi WNW 6.9 mph - N/A   Clear
10:35 AM 46.4 °F 44.3 °F 33.8 °F 62% 30.13 in 10.0 mi WNW 4.6 mph - N/A   Clear
10:55 AM 48.2 °F - 33.8 °F 58% 30.13 in 10.0 mi NW 5.8 mph - N/A   Clear
11:15 AM 50.0 °F - 33.8 °F 54% 30.13 in 10.0 mi NW 5.8 mph - N/A   Clear
11:35 AM 51.8 °F - 30.2 °F 44% 30.14 in 10.0 mi WNW 8.1 mph - N/A   Clear
11:55 AM 51.8 °F - 30.2 °F 44% 30.14 in 10.0 mi West 6.9 mph - N/A   Clear
12:15 PM 53.6 °F - 26.6 °F 35% 30.13 in 10.0 mi WNW 5.8 mph - N/A   Clear
12:35 PM 53.6 °F - 24.8 °F 33% 30.13 in 10.0 mi West 6.9 mph - N/A   Clear
12:55 PM 51.8 °F - 23.0 °F 33% 30.13 in 10.0 mi WNW 6.9 mph - N/A   Scattered Clouds
1:15 PM 53.6 °F - 23.0 °F 30% 30.12 in 10.0 mi NW 4.6 mph - N/A   Scattered Clouds
1:35 PM 51.8 °F - 21.2 °F 30% 30.12 in 10.0 mi West 6.9 mph - N/A   Mostly Cloudy
1:55 PM 53.6 °F - 21.2 °F 28% 30.11 in 10.0 mi West 8.1 mph - N/A   Scattered Clouds
2:15 PM 53.6 °F - 19.4 °F 26% 30.11 in 10.0 mi NW 8.1 mph - N/A   Scattered Clouds
2:35 PM 51.8 °F - 19.4 °F 28% 30.11 in 10.0 mi NW 8.1 mph - N/A   Scattered Clouds
2:55 PM 53.6 °F - 19.4 °F 26% 30.11 in 10.0 mi West 8.1 mph - N/A   Scattered Clouds
3:15 PM 55.4 °F - 19.4 °F 25% 30.11 in 10.0 mi West 3.5 mph - N/A   Mostly Cloudy
3:35 PM 53.6 °F - 19.4 °F 26% 30.11 in 10.0 mi West 4.6 mph - N/A   Scattered Clouds
3:55 PM 53.6 °F - 19.4 °F 26% 30.11 in 10.0 mi NW 5.8 mph - N/A   Scattered Clouds
4:15 PM 53.6 °F - 19.4 °F 26% 30.10 in 10.0 mi NW 6.9 mph - N/A   Scattered Clouds
4:35 PM 53.6 °F - 19.4 °F 26% 30.10 in 10.0 mi NW 5.8 mph - N/A   Scattered Clouds
4:55 PM 53.6 °F - 17.6 °F 24% 30.09 in 10.0 mi NW 8.1 mph - N/A   Clear
5:15 PM 53.6 °F - 15.8 °F 22% 30.10 in 10.0 mi NW 6.9 mph - N/A   Clear
5:35 PM 51.8 °F - 15.8 °F 24% 30.10 in 10.0 mi NW 4.6 mph - N/A   Clear
6:15 PM 48.2 °F - 17.6 °F 30% 30.10 in 10.0 mi WNW 3.5 mph - N/A   Clear
6:35 PM 41.0 °F - 19.4 °F 42% 30.11 in 10.0 mi Calm Calm - N/A   Clear
6:55 PM 42.8 °F - 21.2 °F 42% 30.11 in 10.0 mi Calm Calm - N/A   Clear
7:15 PM 39.2 °F - 21.2 °F 49% 30.12 in 10.0 mi Calm Calm - N/A   Clear
7:35 PM 37.4 °F - 21.2 °F 52% 30.12 in 10.0 mi Calm Calm - N/A   Clear
8:15 PM 37.4 °F - 24.8 °F 60% 30.12 in 10.0 mi Calm Calm - N/A   Clear
8:35 PM 37.4 °F - 24.8 °F 60% 30.12 in 10.0 mi Calm Calm - N/A   Clear
8:55 PM 37.4 °F - 24.8 °F 60% 30.13 in 10.0 mi Calm Calm - N/A   Clear
9:15 PM 37.4 °F - 24.8 °F 60% 30.13 in 7.0 mi Calm Calm - N/A   Clear
9:35 PM 35.6 °F - 26.6 °F 70% 30.13 in 10.0 mi Calm Calm - N/A   Clear
9:55 PM 35.6 °F - 26.6 °F 70% 30.14 in 10.0 mi Calm Calm - N/A   Clear
10:15 PM 35.6 °F - 26.6 °F 70% 30.14 in 7.0 mi Calm Calm - N/A   Clear
10:35 PM 35.6 °F - 26.6 °F 70% 30.14 in 7.0 mi Calm Calm - N/A   Clear
10:55 PM 33.8 °F - 24.8 °F 70% 30.14 in 10.0 mi Calm Calm - N/A   Clear
11:15 PM 33.8 °F - 26.6 °F 75% 30.14 in 10.0 mi Calm Calm - N/A   Clear
11:55 PM 33.8 °F - 24.8 °F 70% 30.14 in 10.0 mi Calm Calm - N/A   Clear